EHI
29 24 18 16 15 12 10 7 5 4 4 6 9 8 6 5 6 5 4 3 2 1 0 0 0 0 0 0 0 0 0 0 0 0 0 0 0 0 0 0 0 0 0
33 27 19 15 13 11 10 9 6 4 4 6 7 7 5 4 5 5 4 2 1 0 0 0 0 0 0 0 0 0 0 0 0 0 0 0 0 0 0 0 0 0 0
36 29 19 12 10 10 10 9 6 5 6 7 7 6 4 4 4 4 4 3 1 0 0 0 0 0 0 0 0 0 0 0 0 0 0 0 0 0 0 0 0 0 0
37 30 20 12 10 10 9 7 5 5 6 7 7 7 6 4 4 4 4 3 1 0 0 0 0 0 0 0 0 0 0 0 0 0 0 0 0 0 0 0 0 0 0
39 33 23 15 13 11 8 6 4 3 4 5 7 8 7 6 5 3 3 2 1 0 0 0 0 0 0 0 0 0 0 0 0 0 0 0 0 0 0 0 0 0 0
41 35 26 20 16 12 9 7 5 4 4 5 7 8 8 7 4 2 2 2 1 0 0 0 0 0 0 0 0 0 0 0 0 0 0 0 0 0 0 0 0 0 0
41 36 28 21 15 10 8 7 7 7 7 8 8 8 6 5 3 1 1 1 1 1 0 0 0 0 0 0 0 0 0 0 0 0 0 0 0 0 0 0 0 0 0
40 35 28 21 14 9 7 7 8 9 8 8 7 6 4 2 1 0 0 0 0 0 0 0 0 0 0 0 0 0 0 0 0 0 0 0 0 0 0 0 0 0 0
39 35 29 24 18 12 9 9 9 10 9 7 5 3 1 1 0 0 0 0 0 0 0 0 0 0 0 0 0 0 0 0 0 0 0 0 0 0 0 0 0 0 0
38 34 30 26 21 15 11 10 10 10 9 8 5 2 1 1 0 0 0 0 0 0 0 0 0 0 0 0 0 0 0 0 0 0 0 0 0 0 0 0 0 0 0
35 32 28 25 20 14 10 10 10 9 7 6 5 3 1 1 0 0 0 0 0 0 0 0 0 0 0 0 0 0 0 0 0 0 0 0 0 0 0 0 0 0 0
31 28 23 20 16 12 9 9 9 7 5 4 4 3 3 2 1 0 0 0 0 0 0 0 0 0 0 0 0 0 0 0 0 0 0 0 0 0 0 0 0 0 0
27 24 20 17 14 12 11 9 8 6 4 3 3 3 3 3 2 1 0 0 0 0 0 0 0 0 0 0 0 0 0 0 0 0 0 0 0 0 0 0 0 0 0
25 21 18 15 13 12 11 9 7 5 4 3 3 4 4 3 3 2 1 0 0 0 0 0 0 0 0 0 0 0 0 0 0 0 0 0 0 0 0 0 0 0 0
21 19 16 14 12 11 10 7 5 3 3 2 3 4 4 3 2 2 1 0 0 0 0 0 0 0 0 0 0 0 0 0 0 0 0 0 0 0 0 0 0 0 0
18 16 14 12 10 9 8 6 3 1 1 1 1 2 2 1 0 1 1 0 0 0 0 0 0 0 0 0 0 0 0 0 0 0 0 0 0 0 0 0 0 0 0
14 13 11 10 9 8 8 6 3 1 0 0 0 0 0 0 0 0 0 0 0 0 0 0 0 0 0 0 0 0 0 0 0 0 0 0 0 0 0 0 0 0 0
10 10 8 8 8 7 7 6 4 2 1 0 0 0 0 0 0 0 0 0 0 0 0 0 0 0 0 0 0 0 0 0 0 0 0 0 0 0 0 0 0 0 0
7 7 7 6 5 5 4 4 3 3 1 0 0 0 0 0 0 0 0 0 0 0 0 0 0 0 0 0 0 0 0 0 0 0 0 0 0 0 0 0 0 0 0
5 5 6 5 3 1 1 1 1 2 1 1 0 0 0 0 0 0 0 0 0 0 0 0 0 0 0 0 0 0 0 0 0 0 0 0 0 0 0 0 0 0 0
4 4 5 4 1 0 0 0 0 1 1 1 1 0 0 0 0 0 0 0 0 0 0 0 0 0 0 0 0 0 0 0 0 0 0 0 0 0 0 0 0 0 0
3 3 4 3 1 0 0 0 0 0 0 0 0 0 0 0 0 0 0 0 0 0 0 0 0 0 0 0 0 0 0 0 0 0 0 0 0 0 0 0 0 0 0
3 3 3 1 0 0 0 0 0 0 0 0 0 0 0 0 0 0 0 0 0 0 0 0 0 0 0 0 0 0 0 0 0 0 0 0 0 0 0 0 0 0 0
3 3 2 1 0 0 0 0 0 0 0 0 0 0 0 0 0 0 0 0 0 0 0 0 0 0 0 0 0 0 0 0 0 0 0 0 0 0 0 0 0 0 0
3 3 2 1 0 0 0 0 0 0 0 0 0 0 0 0 0 0 0 0 0 0 0 0 0 0 0 0 0 0 0 0 0 0 0 0 0 0 0 0 0 0 0
3 3 2 1 0 0 0 0 0 0 0 0 0 0 0 0 0 0 0 0 0 0 0 0 0 0 0 0 0 0 0 0 0 0 0 0 0 0 0 0 0 0 0
Wind_Speed
7 6 6 5 5 4 4 4 3 3 3 3 2 2 1 1 0 1 1 1 1 1 1 1 1 0 0 0 1 1 1 2 2 1 0 0 1 1 1 1 1 1 1
7 6 5 5 5 4 4 3 3 3 2 2 2 2 2 1 0 1 1 0 1 1 1 0 1 0 0 0 1 1 1 2 3 2 0 0 0 0 1 1 1 1 1
7 7 6 5 5 5 4 4 4 3 2 2 3 2 1 1 0 1 1 1 1 1 1 1 1 1 1 1 1 1 1 1 2 3 1 0 0 0 1 1 1 1 1
7 7 6 5 5 5 4 4 4 3 3 2 2 2 2 1 1 1 1 1 0 0 0 1 1 1 1 1 1 1 1 1 2 2 2 1 0 0 1 0 1 1 1
8 7 6 5 5 5 4 4 4 3 3 3 3 2 2 1 1 1 1 1 1 1 1 0 1 2 2 2 2 2 2 2 2 2 2 1 1 1 1 1 1 1 1
8 7 6 6 6 5 5 4 4 3 3 3 3 2 2 1 1 2 2 1 1 1 1 1 1 1 2 2 2 2 3 3 3 3 2 2 2 1 1 1 1 0 1
8 7 7 7 6 5 5 5 4 3 3 3 2 2 2 1 1 2 2 2 2 2 1 1 1 2 2 1 2 2 2 2 4 4 3 3 3 3 3 2 2 2 2
8 7 7 7 6 5 5 4 4 3 3 2 2 2 2 1 2 2 3 3 2 2 2 2 2 1 1 2 2 2 2 1 1 2 3 3 2 3 3 3 3 1 1
8 7 7 7 7 6 5 4 3 3 3 2 3 3 2 1 2 3 3 2 2 2 2 2 2 2 1 3 3 2 2 2 2 2 1 1 2 2 2 2 1 1 1
7 7 7 7 7 7 6 4 3 3 3 3 2 2 2 1 2 3 3 2 2 1 2 2 3 3 3 3 3 3 2 1 2 3 3 2 1 1 2 2 3 2 1
6 6 5 5 5 5 4 3 3 3 3 3 2 2 2 2 2 2 3 2 2 2 1 1 1 2 3 3 3 2 1 1 1 1 2 2 1 1 0 0 1 2 2
7 6 6 5 4 4 5 4 4 4 3 2 2 1 1 1 1 2 3 3 3 3 1 0 0 2 3 3 2 2 2 2 1 2 1 1 0 1 1 1 1 1 2
7 6 6 5 3 3 4 4 3 3 3 2 2 2 1 0 0 1 3 3 3 2 1 2 2 2 2 1 1 2 2 2 1 1 1 1 1 1 1 1 1 1 1
8 6 5 5 4 3 3 3 3 3 3 3 3 2 2 1 0 0 1 2 2 2 1 1 2 2 2 2 1 1 1 0 1 1 1 1 0 1 0 0 1 1 1
7 6 5 5 5 4 3 2 3 2 3 4 3 3 3 2 3 4 3 2 2 2 2 2 2 1 1 1 1 1 1 1 0 0 0 0 1 1 1 1 0 0 0
6 5 4 4 4 4 4 2 2 1 1 2 3 3 2 3 4 5 5 4 4 5 4 2 1 1 1 1 1 1 1 1 1 1 1 1 1 1 1 1 1 1 2
6 5 4 4 4 4 4 4 3 1 2 2 1 3 3 3 4 4 5 4 4 6 3 2 2 2 2 2 2 1 2 2 1 1 1 1 1 1 1 1 1 1 2
5 5 4 4 4 4 4 4 4 4 2 0 1 1 3 3 3 3 4 4 2 2 2 2 2 2 2 2 2 2 2 2 1 1 2 2 2 1 1 1 2 2 2
4 3 3 3 4 4 3 3 3 3 3 2 1 0 1 1 1 1 4 3 3 3 3 3 3 3 2 2 2 2 2 2 2 2 2 2 2 2 2 2 3 4 3
2 4 4 3 3 3 3 3 3 3 3 3 2 2 1 2 1 1 2 2 3 3 3 3 3 3 3 2 2 2 2 2 2 2 2 2 2 2 3 3 2 2 3
2 2 4 3 3 3 3 3 3 3 3 3 3 3 5 3 3 3 3 3 4 4 4 3 3 3 3 2 2 3 3 3 3 3 2 2 2 2 2 2 3 3 2
3 2 2 2 2 3 3 3 3 3 3 3 2 2 5 3 2 2 3 3 4 3 3 2 2 2 2 2 2 2 2 2 2 2 2 2 2 2 2 2 2 2 2
3 3 3 2 2 3 3 2 2 2 2 2 2 2 2 2 2 2 3 3 2 2 2 2 2 1 1 1 1 1 2 2 3 3 2 2 2 2 2 2 3 2 2
3 3 3 3 3 3 2 2 2 2 1 1 2 2 2 2 2 2 2 2 1 1 1 1 1 1 1 0 0 0 1 2 2 2 3 3 3 2 2 2 2 3 3
2 3 3 3 3 3 3 2 2 2 2 2 1 2 2 1 1 1 1 1 1 1 1 1 1 1 1 1 1 1 2 2 1 1 1 1 2 2 2 2 2 2 2
2 3 3 3 3 3 3 2 2 2 2 2 2 2 2 1 1 1 1 1 1 2 2 2 2 2 2 1 2 2 2 2 2 2 1 1 1 1 1 2 2 2 2
Wind_Direction
185 183 176 176 177 174 174 180 172 163 154 153 160 144 121 113 148 151 185 161 177 240 246 202 250 259 76 186 170 171 164 147 167 244 0 75 64 72 29 38 52 47 79
175 165 165 164 160 163 170 174 162 156 160 157 138 131 136 127 231 180 203 181 184 232 254 209 244 271 89 172 142 146 157 151 151 173 192 43 28 95 74 55 42 59 61
161 156 155 156 157 162 163 155 146 148 143 130 128 129 133 134 138 183 179 164 179 203 212 184 206 155 182 164 138 155 170 152 147 155 171 171 270 130 76 41 36 16 26
151 150 154 160 160 159 154 148 144 139 132 134 134 136 138 130 116 103 135 133 105 135 151 164 170 164 172 175 159 161 147 131 132 142 153 151 176 242 118 82 7 356 349
153 155 162 159 151 146 146 146 139 133 136 137 132 126 121 121 122 137 146 136 127 87 40 91 126 115 113 139 143 158 147 143 143 144 156 160 174 153 196 210 208 308 323
157 161 161 154 149 146 145 141 136 134 133 128 131 133 122 128 118 124 133 139 134 128 88 42 85 88 86 106 133 147 153 158 162 160 173 190 202 194 178 178 174 199 278
160 164 161 158 157 159 153 146 145 141 131 127 132 130 131 107 78 91 110 125 120 119 112 93 76 62 83 106 91 84 95 136 165 167 177 198 195 198 180 190 213 215 232
164 166 162 158 156 153 150 154 155 147 146 145 142 141 135 84 78 83 100 107 97 94 102 111 104 51 52 103 103 82 57 42 179 165 184 202 199 195 189 194 201 202 270
164 165 164 161 156 155 159 164 159 151 150 153 152 150 141 94 73 99 114 104 95 88 95 93 100 84 59 106 106 98 63 23 35 66 120 150 152 156 151 125 133 140 272
169 164 159 160 158 160 164 164 156 147 153 147 144 148 146 139 103 104 125 120 108 82 60 65 74 82 80 107 112 114 104 43 48 48 48 48 66 114 136 156 171 173 193
152 144 144 149 149 149 149 149 143 138 134 137 142 142 143 142 130 116 131 142 144 123 95 54 23 69 88 102 108 119 157 139 97 86 66 51 41 32 347 215 190 177 186
134 136 134 132 140 146 141 139 135 139 141 144 134 120 107 141 141 140 129 127 133 137 150 185 68 80 80 96 104 88 93 92 92 86 75 42 342 298 288 284 256 233 223
134 139 140 132 134 153 151 146 139 143 149 151 143 150 174 82 49 96 121 121 117 128 146 142 126 105 91 80 78 94 102 98 104 113 183 245 255 263 307 342 343 333 316
135 143 146 140 148 155 140 144 151 161 165 167 174 175 173 156 104 71 94 109 101 92 79 87 93 81 79 58 32 30 54 131 157 188 244 272 322 357 327 304 320 343 348
142 149 152 149 154 148 138 148 165 182 181 173 188 179 169 188 211 179 157 150 156 159 121 81 63 53 40 12 358 348 347 3 308 288 239 316 314 294 281 271 226 342 263
145 155 161 159 157 153 144 108 57 105 122 162 169 165 178 183 173 170 172 172 168 152 128 125 158 182 208 227 235 268 269 256 249 230 219 225 242 262 280 290 251 215 240
153 162 163 164 164 165 163 159 156 63 53 71 164 179 180 172 165 169 176 176 164 150 143 171 193 207 217 224 227 233 249 256 245 224 226 233 237 250 262 274 273 268 263
152 159 160 169 171 172 172 172 169 165 162 274 306 199 195 192 187 183 163 131 123 154 185 200 212 216 216 224 232 240 254 263 245 239 240 243 235 235 252 267 257 251 258
153 159 158 161 158 161 164 164 170 170 166 164 131 44 170 157 134 147 145 152 178 197 211 219 221 218 218 219 223 229 234 238 240 236 240 243 244 239 250 255 255 256 246
156 160 156 157 156 159 160 160 175 183 182 181 190 196 147 112 117 164 186 199 203 212 214 219 225 220 218 218 219 220 224 233 236 235 241 241 241 240 248 254 256 254 247
145 150 150 149 155 159 158 166 176 179 188 197 206 192 168 171 189 200 206 210 214 217 216 217 222 222 222 221 220 224 226 233 233 233 239 242 240 247 256 256 258 253 259
138 138 139 142 145 144 148 152 155 171 184 191 203 184 176 182 195 203 214 223 225 223 214 204 215 227 227 226 221 221 230 235 237 237 239 241 243 248 251 257 264 265 259
131 138 135 128 123 125 124 130 146 162 177 183 178 165 176 201 206 213 222 224 220 220 210 195 199 220 237 231 216 198 212 232 235 228 229 239 246 253 254 251 253 257 254
132 140 135 128 124 129 135 138 138 137 137 139 142 145 160 182 199 210 216 215 199 188 173 170 169 163 150 65 2 340 296 279 261 233 226 232 240 249 251 256 257 253 251
122 124 130 136 137 135 134 132 125 117 111 103 102 111 120 136 157 169 162 137 132 126 120 125 126 121 112 88 25 342 320 316 322 317 253 233 239 249 255 259 260 262 255
113 115 117 119 121 124 125 124 120 120 120 122 123 122 123 125 125 120 110 104 105 95 83 75 86 89 73 43 21 12 2 354 354 346 325 265 247 257 270 266 268 264 264